Weather History for Nampa, ID

Change the Weather History Date:

Friday, May 23, 2014

  Actual Average (KBOI) Record (KBOI)
Temperature  
Mean Temperature 66 °F 61 °F  
Max Temperature 86 °F 74 °F 95 °F (2001)
Min Temperature 46 °F 48 °F 32 °F (1944)
Degree Days  
Heating Degree Days 0 6  
Month to date heating degree days 188  
Since 1 July heating degree days 5412  
Cooling Degree Days 1 2  
Month to date cooling degree days 25  
Year to date cooling degree days 28  
Growing Degree Days 16 (Base 50)    
Moisture  
Dew Point 40 °F    
Average Humidity 48    
Maximum Humidity 100    
Minimum Humidity 10    
Precipitation  
Precipitation 0.00 in 0.05 in 1.13 in (1942)
Month to date precipitation 1.05  
Year to date precipitation 5.90  
Snow  
Snow 0.00 in 0.00 in 0.00 in (2007)
Month to date snowfall 0.0  
Since 1 July snowfall 19.2  
Snow Depth -    
Sea Level Pressure  
Sea Level Pressure 29.96 in    
Wind  
Wind Speed 4 mph (North)    
Max Wind Speed 25 mph    
Max Gust Speed 36 mph    
Visibility 10 miles    
Events      
T = Trace of Precipitation, MM = Missing Value Source: NWS Daily Summary

Daily Weather History Graph

Daily Weather History Graph

Search for Another Location

Airport:

Trip Planner

Search our weather history database for the weather conditions in past years. The results will help you decide how hot, cold, wet, or windy it might be!

Date:

Astronomy

May. 23, 2014 Rise Set
Actual Time 6:13 AM MDT 9:12 PM MDT
Civil Twilight 5:39 AM MDT 9:46 PM MDT
Nautical Twilight 4:56 AM MDT 10:30 PM MDT
Astronomical Twilight 4:05 AM MDT 11:21 PM MDT
Moon 3:20 AM MDT (5/23) 4:01 PM MDT (5/23)
Length of Visible Light 16h 07m
Length of Day
14h 59m
Waning Crescent, 26% of the Moon is Illuminated
May 23
Waning Crescent
May 28
New
Jun 5
First Quarter
Jun 12
Full
Jun 19
Last Quarter

Hourly Weather History & Observations

Time (MDT) Temp. Windchill Dew Point Humidity Pressure Visibility Wind Dir Wind Speed Gust Speed Precip Events Conditions
12:15 AM 55.4 °F - 44.6 °F 67% 29.98 in 10.0 mi Calm Calm - N/A   Clear
12:35 AM 55.4 °F - 42.8 °F 63% 29.98 in 10.0 mi East 3.5 mph - N/A   Clear
12:55 AM 53.6 °F - 44.6 °F 72% 29.98 in 10.0 mi Calm Calm - N/A   Clear
1:15 AM 53.6 °F - 44.6 °F 72% 29.98 in 10.0 mi Calm Calm - N/A   Clear
1:35 AM 53.6 °F - 44.6 °F 72% 29.98 in 10.0 mi Calm Calm - N/A   Clear
1:55 AM 51.8 °F - 44.6 °F 76% 29.98 in 10.0 mi Calm Calm - N/A   Clear
2:15 AM 50.0 °F - 46.4 °F 87% 29.99 in 10.0 mi Calm Calm - N/A   Clear
2:35 AM 50.0 °F - 44.6 °F 82% 29.99 in 10.0 mi Calm Calm - N/A   Clear
2:55 AM 48.2 °F - 42.8 °F 82% 29.99 in 10.0 mi Calm Calm - N/A   Clear
3:15 AM 50.0 °F - 42.8 °F 76% 30.00 in 10.0 mi Calm Calm - N/A   Clear
3:35 AM 50.0 °F - 42.8 °F 76% 30.00 in 10.0 mi Calm Calm - N/A   Clear
3:55 AM 50.0 °F - 44.6 °F 82% 30.00 in 10.0 mi Calm Calm - N/A   Clear
4:15 AM 48.2 °F - 44.6 °F 87% 30.00 in 10.0 mi Calm Calm - N/A   Clear
4:35 AM 50.0 °F - 44.6 °F 82% 30.00 in 10.0 mi Calm Calm - N/A   Clear
4:55 AM 46.4 °F - 44.6 °F 93% 30.00 in 10.0 mi Calm Calm - N/A   Clear
5:15 AM 48.2 °F - 44.6 °F 87% 30.00 in 10.0 mi Calm Calm - N/A   Clear
5:35 AM 46.4 °F 44.3 °F 44.6 °F 93% 30.00 in 10.0 mi SE 4.6 mph - N/A   Clear
5:55 AM 46.4 °F - 46.4 °F 100% 30.01 in 10.0 mi Calm Calm - N/A   Clear
6:15 AM 46.4 °F - 44.6 °F 93% 30.01 in 10.0 mi Calm Calm - N/A   Clear
6:35 AM 46.4 °F - 44.6 °F 93% 30.01 in 10.0 mi Calm Calm - N/A   Clear
6:55 AM 46.4 °F - 44.6 °F 93% 30.01 in 10.0 mi Calm Calm - N/A   Clear
7:15 AM 48.2 °F - 46.4 °F 93% 30.02 in 10.0 mi Calm Calm - N/A   Clear
7:35 AM 50.0 °F - 46.4 °F 87% 30.02 in 10.0 mi SE 3.5 mph - N/A   Clear
7:55 AM 53.6 °F - 46.4 °F 77% 30.02 in 10.0 mi Calm Calm - N/A   Clear
8:15 AM 57.2 °F - 46.4 °F 67% 30.02 in 10.0 mi Calm Calm - N/A   Clear
8:35 AM 59.0 °F - 46.4 °F 63% 30.02 in 10.0 mi SE 3.5 mph - N/A   Clear
8:55 AM 60.8 °F - 46.4 °F 59% 30.02 in 10.0 mi SE 4.6 mph - N/A   Clear
9:15 AM 62.6 °F - 44.6 °F 52% 30.02 in 10.0 mi SE 3.5 mph - N/A   Clear
9:35 AM 66.2 °F - 44.6 °F 46% 30.02 in 10.0 mi South 3.5 mph - N/A   Clear
9:55 AM 66.2 °F - 42.8 °F 43% 30.02 in 10.0 mi Calm Calm - N/A   Clear
10:35 AM 71.6 °F - 39.2 °F 31% 30.01 in 10.0 mi NNE 5.8 mph - N/A   Clear
10:55 AM 71.6 °F - 39.2 °F 31% 30.01 in 10.0 mi North 6.9 mph - N/A   Clear
11:15 AM 73.4 °F - 41.0 °F 31% 30.01 in 10.0 mi NNW 5.8 mph - N/A   Clear
11:35 AM 73.4 °F - 41.0 °F 31% 30.01 in 10.0 mi North 6.9 mph - N/A   Clear
11:55 AM 75.2 °F - 39.2 °F 27% 30.00 in 10.0 mi NNW 6.9 mph - N/A   Clear
12:15 PM 75.2 °F - 41.0 °F 29% 29.99 in 10.0 mi NNW 6.9 mph - N/A   Clear
12:55 PM 78.8 °F - 41.0 °F 26% 29.98 in 10.0 mi Calm Calm - N/A   Clear
1:15 PM 80.6 °F - 41.0 °F 24% 29.97 in 10.0 mi NE 4.6 mph - N/A   Clear
1:35 PM 80.6 °F - 41.0 °F 24% 29.97 in 10.0 mi North 4.6 mph - N/A   Clear
2:15 PM 84.2 °F - 37.4 °F 19% 29.95 in 10.0 mi NNW 3.5 mph - N/A   Clear
2:35 PM 84.2 °F - 32.0 °F 15% 29.94 in 10.0 mi Calm Calm - N/A   Clear
2:55 PM 84.2 °F - 32.0 °F 15% 29.93 in 10.0 mi NNW 8.1 mph - N/A   Clear
3:15 PM 84.2 °F - 28.4 °F 13% 29.92 in 10.0 mi North 4.6 mph - N/A   Clear
3:35 PM 84.2 °F - 24.8 °F 11% 29.92 in 10.0 mi NNE 5.8 mph - N/A   Clear
3:55 PM 84.2 °F - 21.2 °F 10% 29.91 in 10.0 mi North 6.9 mph - N/A   Clear
4:15 PM 86.0 °F - 23.0 °F 10% 29.91 in 10.0 mi North 8.1 mph - N/A   Clear
4:35 PM 86.0 °F - 23.0 °F 10% 29.89 in 10.0 mi North 9.2 mph - N/A   Clear
4:55 PM 86.0 °F - 24.8 °F 11% 29.88 in 10.0 mi NE 10.4 mph - N/A   Clear
5:15 PM 86.0 °F - 26.6 °F 12% 29.87 in 10.0 mi NNE 8.1 mph - N/A   Clear
5:35 PM 86.0 °F - 26.6 °F 12% 29.86 in 10.0 mi NNE 6.9 mph - N/A   Clear
5:55 PM 86.0 °F - 28.4 °F 12% 29.86 in 10.0 mi North 5.8 mph - N/A   Clear
6:15 PM 86.0 °F - 28.4 °F 12% 29.85 in 10.0 mi NE 4.6 mph - N/A   Clear
6:35 PM 86.0 °F - 28.4 °F 12% 29.84 in 10.0 mi NE 4.6 mph - N/A   Clear
6:55 PM 86.0 °F - 28.4 °F 12% 29.83 in 10.0 mi East 6.9 mph - N/A   Clear
7:15 PM 84.2 °F - 26.6 °F 12% 29.83 in 10.0 mi North 3.5 mph - N/A   Clear
7:35 PM 84.2 °F - 28.4 °F 13% 29.83 in 10.0 mi Calm Calm - N/A   Clear
7:55 PM 84.2 °F - 28.4 °F 13% 29.82 in 10.0 mi Calm Calm - N/A   Clear
8:15 PM 82.4 °F - 32.0 °F 16% 29.82 in 10.0 mi Calm Calm - N/A   Clear
8:35 PM 77.0 °F - 44.6 °F 32% 29.85 in 7.0 mi NW 20.7 mph 26.5 mph N/A   Clear
8:55 PM 71.6 °F - 44.6 °F 38% 29.88 in 10.0 mi NW 19.6 mph 28.8 mph N/A   Clear
9:15 PM 69.8 °F - 46.4 °F 43% 29.89 in 10.0 mi NW 23.0 mph 35.7 mph N/A   Clear
9:35 PM 68.0 °F - 44.6 °F 43% 29.92 in 10.0 mi NW 24.2 mph 32.2 mph N/A   Clear
9:55 PM 68.0 °F - 44.6 °F 43% 29.93 in 10.0 mi NW 21.9 mph 32.2 mph N/A   Clear
10:15 PM 68.0 °F - 44.6 °F 43% 29.95 in 10.0 mi WNW 25.3 mph 32.2 mph N/A   Clear
10:35 PM 66.2 °F - 44.6 °F 46% 29.96 in 10.0 mi NW 19.6 mph 27.6 mph N/A   Clear
10:55 PM 66.2 °F - 44.6 °F 46% 29.98 in 10.0 mi NW 17.3 mph 31.1 mph N/A   Clear
11:15 PM 64.4 °F - 46.4 °F 52% 29.99 in 10.0 mi NNW 18.4 mph 23.0 mph N/A   Clear
11:35 PM 64.4 °F - 46.4 °F 52% 29.99 in 10.0 mi NW 15.0 mph 23.0 mph N/A   Clear
11:55 PM 64.4 °F - 46.4 °F 52% 29.99 in 10.0 mi NW 13.8 mph 18.4 mph N/A   Clear